{"data":{"norad_id":61638,"intl_designator":"2024-191T","name":"STARLINK-32320","alt_names":[],"object_type":"PAYLOAD","status":"ACTIVE","operator":null,"country":"US","launch_date":"2024-10-23","launch_site_code":"AFETR","launch_vehicle":null,"mission":null,"orbit_class":"UNKNOWN","rcs_meters":null,"size_class":null,"mass_kg":null,"dimensions":null,"purposes":["comms"],"wikipedia_slug":null,"has_3d_model":false,"image_url":null,"decayed_at":null,"tle_current":{"epoch":"2026-05-25T04:56:56.430816Z","epoch_age_seconds":54541,"freshness":"FRESH","line1":"1 61638U 24191T   26145.20620869  .00003469  00000+0  13550-3 0  9990","line2":"2 61638  43.0013  86.2759 0000795 258.1244 101.9518 15.27580308 89192","mean_motion":15.27580308,"eccentricity":7.95e-5,"inclination_deg":43.0013,"raan_deg":86.2759,"arg_perigee_deg":258.1244,"mean_anomaly_deg":101.9518,"bstar":0.0001355,"rev_number":8919,"period_min":94.266729707018,"perigee_km":482.50270955569,"apogee_km":483.59363799832,"semimajor_km":6861.185173777,"source":"CELESTRAK","updated_at":"2026-05-25T13:38:19.410257Z"}}}